This is the latest recevied weather packets stored in our database for station/object K5DLF-13. If no packets are shown the sender has not sent any weather packets the latest 1 day(s).
| Time | Temp. | Humidity | Pressure | Rain* | Wind** | Luminosity | Snow |
|---|---|---|---|---|---|---|---|
| 1778114994 | 26.67° C | 89% | 1006.5 hPa | 0 mm | - | 0 W/m² | - |
| 1778114694 | 26.67° C | 89% | 1006.5 hPa | 0 mm | - | 0 W/m² | - |
| 1778114094 | 26.67° C | 89% | 1006.2 hPa | 0 mm | - | 5 W/m² | - |
| 1778113794 | 27.22° C | 89% | 1006.2 hPa | 0 mm | - | 5 W/m² | - |
| 1778113494 | 27.22° C | 89% | 1006.1 hPa | 0 mm | - | 9 W/m² | - |
| 1778113194 | 27.22° C | 89% | 1006 hPa | 0 mm | - | 14 W/m² | - |
| 1778098795 | 28.89° C | 86% | 1006.1 hPa | 0 mm | - | 596 W/m² | - |
| 1778098195 | 28.33° C | 87% | 1006.5 hPa | 0 mm | - | 418 W/m² | - |
| 1778097895 | 28.33° C | 86% | 1006.6 hPa | 0 mm | - | 253 W/m² | - |
| 1778097595 | 28.33° C | 86% | 1006.6 hPa | 0 mm | - | 287 W/m² | - |
| 1778097295 | 28.33° C | 86% | 1006.7 hPa | 0 mm | - | 255 W/m² | - |
| 1778096995 | 28.33° C | 86% | 1006.7 hPa | 0 mm | - | 320 W/m² | - |
| 1778096695 | 28.33° C | 85% | 1006.7 hPa | 0 mm | - | 195 W/m² | - |
| 1778096395 | 28.33° C | 86% | 1006.7 hPa | 0 mm | - | 181 W/m² | - |
| 1778096095 | 28.89° C | 87% | 1006.8 hPa | 0 mm | - | 211 W/m² | - |
| 1778095795 | 28.33° C | 86% | 1006.8 hPa | 0 mm | - | 350 W/m² | - |
| 1778095495 | 28.33° C | 87% | 1006.9 hPa | 0 mm | - | 278 W/m² | - |
| 1778095195 | 28.33° C | 86% | 1007 hPa | 0 mm | - | 276 W/m² | - |
| 1778094895 | 28.33° C | 87% | 1007.1 hPa | 0 mm | - | 285 W/m² | - |
| 1778094595 | 28.33° C | 86% | 1007.1 hPa | 0 mm | - | 295 W/m² | - |
| 1778094295 | 28.33° C | 87% | 1007.2 hPa | 0 mm | - | 309 W/m² | - |
| 1778093995 | 28.33° C | 86% | 1007.2 hPa | 0 mm | - | 283 W/m² | - |
| 1778093695 | 28.33° C | 86% | 1007.2 hPa | 0 mm | - | 292 W/m² | - |
| 1778093395 | 28.33° C | 86% | 1007.3 hPa | 0 mm | - | 276 W/m² | - |
| 1778093095 | 28.33° C | 87% | 1007.3 hPa | 0 mm | - | 206 W/m² | - |
* Rain latest hour (hover to see other rain measurements)
** Current wind speed in m/s (hover to see current wind gust speed)